QPF
0.00 0.00 0.00 0.00 0.00 0.00 0.00 0.00 0.00 0.00 0.00 0.02 0.07 0.09 0.05 0.04 0.04 0.05 0.05 0.05 0.05 0.05 0.01 0.01 0.01 0.00 0.00 0.00 0.00 0.00 0.00 0.00 0.00 0.00 0.00 0.00 0.00 0.00 0.00 0.01 0.02 0.00 0.00
0.00 0.00 0.00 0.00 0.00 0.00 0.00 0.00 0.00 0.00 0.00 0.00 0.01 0.02 0.02 0.01 0.03 0.04 0.03 0.01 0.00 0.00 0.00 0.00 0.00 0.00 0.00 0.00 0.00 0.00 0.00 0.00 0.00 0.00 0.00 0.00 0.00 0.00 0.00 0.00 0.00 0.00 0.00
0.00 0.00 0.00 0.00 0.00 0.00 0.00 0.00 0.00 0.00 0.00 0.01 0.00 0.00 0.00 0.01 0.01 0.01 0.00 0.00 0.00 0.00 0.00 0.00 0.00 0.00 0.00 0.00 0.00 0.00 0.00 0.00 0.00 0.00 0.03 0.03 0.00 0.00 0.00 0.00 0.00 0.00 0.00
0.00 0.00 0.00 0.00 0.00 0.00 0.00 0.00 0.00 0.00 0.00 0.00 0.01 0.00 0.00 0.01 0.00 0.00 0.00 0.00 0.00 0.00 0.00 0.00 0.00 0.00 0.00 0.00 0.00 0.00 0.00 0.00 0.00 0.00 0.00 0.05 0.03 0.00 0.00 0.00 0.00 0.00 0.00
0.00 0.00 0.00 0.00 0.00 0.00 0.00 0.00 0.00 0.00 0.00 0.00 0.00 0.00 0.00 0.00 0.00 0.00 0.00 0.00 0.00 0.00 0.00 0.00 0.00 0.00 0.00 0.00 0.00 0.00 0.00 0.00 0.00 0.00 0.00 0.04 0.03 0.00 0.00 0.00 0.00 0.00 0.00
0.00 0.00 0.00 0.00 0.00 0.00 0.00 0.00 0.00 0.00 0.00 0.00 0.00 0.00 0.00 0.00 0.00 0.00 0.00 0.00 0.00 0.00 0.00 0.00 0.00 0.00 0.00 0.00 0.00 0.00 0.00 0.00 0.00 0.00 0.01 0.00 0.00 0.00 0.00 0.00 0.00 0.00 0.00
0.00 0.00 0.00 0.00 0.00 0.00 0.00 0.00 0.00 0.00 0.00 0.00 0.00 0.00 0.00 0.00 0.00 0.00 0.00 0.00 0.00 0.00 0.00 0.00 0.00 0.00 0.00 0.00 0.00 0.00 0.00 0.00 0.00 0.00 0.00 0.00 0.00 0.00 0.00 0.00 0.00 0.00 0.00
0.00 0.00 0.00 0.00 0.00 0.00 0.00 0.00 0.00 0.00 0.00 0.00 0.00 0.00 0.00 0.00 0.00 0.00 0.00 0.00 0.00 0.00 0.00 0.00 0.00 0.00 0.00 0.00 0.00 0.00 0.00 0.00 0.00 0.00 0.00 0.00 0.00 0.00 0.00 0.00 0.00 0.00 0.00
0.00 0.00 0.00 0.00 0.00 0.00 0.00 0.00 0.00 0.00 0.00 0.00 0.00 0.00 0.00 0.00 0.00 0.00 0.00 0.00 0.00 0.00 0.00 0.00 0.00 0.00 0.00 0.00 0.00 0.00 0.00 0.00 0.00 0.00 0.00 0.00 0.00 0.00 0.00 0.00 0.00 0.00 0.00
0.00 0.00 0.00 0.00 0.00 0.00 0.00 0.00 0.00 0.00 0.00 0.00 0.00 0.00 0.00 0.00 0.00 0.00 0.00 0.00 0.00 0.00 0.00 0.00 0.00 0.00 0.00 0.00 0.00 0.00 0.00 0.00 0.00 0.00 0.00 0.00 0.00 0.00 0.00 0.00 0.00 0.00 0.00
0.00 0.00 0.00 0.00 0.00 0.00 0.00 0.00 0.00 0.00 0.00 0.00 0.00 0.00 0.03 0.03 0.01 0.14 0.02 0.00 0.00 0.00 0.00 0.00 0.00 0.00 0.01 0.01 0.03 0.01 0.00 0.00 0.00 0.00 0.00 0.00 0.00 0.00 0.00 0.00 0.02 0.01 0.00
0.00 0.00 0.00 0.00 0.00 0.00 0.00 0.00 0.00 0.00 0.00 0.00 0.00 0.00 0.08 0.02 0.01 0.03 0.01 0.03 0.01 0.00 0.00 0.01 0.03 0.05 0.05 0.02 0.04 0.01 0.00 0.03 0.04 0.03 0.03 0.03 0.01 0.00 0.00 0.01 0.03 0.04 0.02
0.00 0.00 0.00 0.00 0.00 0.00 0.00 0.00 0.00 0.00 0.00 0.01 0.00 0.00 0.02 0.02 0.02 0.02 0.01 0.01 0.00 0.00 0.00 0.00 0.08 0.02 0.06 0.01 0.01 0.00 0.04 0.19 0.09 0.13 0.12 0.13 0.12 0.07 0.05 0.04 0.03 0.03 0.02
0.00 0.00 0.00 0.00 0.00 0.00 0.00 0.00 0.00 0.00 0.00 0.01 0.00 0.00 0.04 0.10 0.04 0.01 0.00 0.00 0.00 0.00 0.00 0.00 0.13 0.03 0.03 0.00 0.02 0.04 0.11 0.10 0.03 0.08 0.08 0.12 0.11 0.09 0.12 0.20 0.19 0.15 0.11
0.00 0.00 0.00 0.00 0.00 0.00 0.00 0.00 0.00 0.00 0.00 0.00 0.00 0.00 0.01 0.03 0.01 0.00 0.00 0.00 0.00 0.00 0.00 0.03 0.05 0.04 0.03 0.00 0.05 0.01 0.03 0.02 0.01 0.02 0.03 0.05 0.07 0.07 0.12 0.20 0.19 0.22 0.17
0.00 0.00 0.00 0.00 0.00 0.00 0.00 0.00 0.00 0.00 0.00 0.00 0.00 0.00 0.00 0.03 0.00 0.00 0.01 0.04 0.00 0.00 0.00 0.00 0.00 0.01 0.00 0.00 0.00 0.00 0.00 0.00 0.00 0.00 0.01 0.04 0.07 0.04 0.02 0.12 0.13 0.11 0.10
0.00 0.00 0.00 0.00 0.00 0.00 0.00 0.00 0.00 0.00 0.03 0.00 0.00 0.00 0.00 0.00 0.00 0.01 0.07 0.10 0.03 0.00 0.00 0.00 0.00 0.00 0.00 0.00 0.00 0.00 0.00 0.00 0.00 0.00 0.01 0.07 0.14 0.06 0.02 0.01 0.01 0.02 0.00
0.00 0.00 0.00 0.00 0.00 0.00 0.00 0.00 0.00 0.01 0.02 0.00 0.00 0.00 0.00 0.00 0.00 0.02 0.11 0.13 0.04 0.00 0.00 0.00 0.00 0.00 0.00 0.00 0.00 0.00 0.00 0.00 0.00 0.00 0.01 0.06 0.13 0.09 0.10 0.05 0.00 0.02 0.03
0.00 0.00 0.00 0.00 0.00 0.00 0.00 0.00 0.00 0.00 0.00 0.00 0.00 0.00 0.00 0.00 0.00 0.00 0.06 0.06 0.01 0.02 0.03 0.01 0.00 0.00 0.00 0.00 0.00 0.00 0.00 0.00 0.00 0.00 0.00 0.01 0.03 0.07 0.05 0.02 0.04 0.13 0.03
0.00 0.00 0.00 0.00 0.00 0.00 0.00 0.00 0.00 0.00 0.00 0.00 0.00 0.00 0.00 0.01 0.01 0.00 0.00 0.00 0.00 0.00 0.00 0.00 0.00 0.00 0.00 0.00 0.00 0.00 0.00 0.00 0.00 0.00 0.00 0.02 0.11 0.15 0.17 0.15 0.14 0.10 0.06
0.00 0.00 0.00 0.00 0.00 0.00 0.00 0.00 0.00 0.00 0.00 0.00 0.00 0.00 0.00 0.00 0.00 0.00 0.00 0.00 0.00 0.00 0.00 0.00 0.00 0.00 0.00 0.00 0.00 0.00 0.00 0.00 0.00 0.00 0.00 0.02 0.07 0.09 0.11 0.13 0.08 0.03 0.01
0.00 0.00 0.00 0.00 0.00 0.00 0.00 0.00 0.00 0.00 0.00 0.00 0.05 0.03 0.00 0.00 0.00 0.00 0.00 0.00 0.00 0.00 0.01 0.05 0.02 0.01 0.01 0.02 0.02 0.00 0.00 0.00 0.00 0.00 0.00 0.00 0.01 0.03 0.03 0.04 0.04 0.02 0.00
0.00 0.00 0.00 0.00 0.00 0.00 0.00 0.00 0.00 0.00 0.00 0.00 0.00 0.00 0.00 0.00 0.00 0.00 0.00 0.00 0.00 0.00 0.01 0.07 0.03 0.10 0.05 0.02 0.03 0.03 0.02 0.01 0.00 0.00 0.00 0.01 0.00 0.00 0.01 0.01 0.02 0.02 0.07
0.00 0.00 0.00 0.00 0.00 0.00 0.00 0.00 0.00 0.00 0.00 0.00 0.00 0.00 0.00 0.00 0.00 0.00 0.00 0.00 0.00 0.00 0.00 0.01 0.02 0.06 0.06 0.01 0.04 0.01 0.07 0.05 0.03 0.02 0.01 0.02 0.00 0.00 0.01 0.00 0.01 0.03 0.08
0.00 0.00 0.00 0.00 0.00 0.00 0.00 0.00 0.00 0.00 0.00 0.01 0.01 0.00 0.00 0.00 0.00 0.00 0.00 0.00 0.00 0.00 0.02 0.02 0.02 0.02 0.05 0.03 0.01 0.03 0.05 0.04 0.10 0.05 0.06 0.06 0.00 0.00 0.00 0.00 0.04 0.02 0.00
0.00 0.00 0.00 0.00 0.00 0.00 0.00 0.00 0.00 0.00 0.00 0.00 0.00 0.00 0.00 0.00 0.00 0.00 0.00 0.00 0.00 0.00 0.01 0.01 0.03 0.02 0.01 0.01 0.01 0.01 0.03 0.10 0.18 0.22 0.22 0.08 0.00 0.00 0.00 0.01 0.01 0.00 0.00
MSLP
1012.24 1012.91 1013.25 1013.48 1013.61 1013.77 1013.89 1013.99 1014.12 1014.19 1014.24 1014.39 1014.51 1014.68 1014.83 1014.96 1015.14 1015.38 1015.45 1015.53 1015.74 1015.71 1015.70 1015.68 1015.66 1015.59 1015.58 1015.60 1015.49 1015.50 1015.54 1015.55 1015.52 1015.53 1015.61 1015.56 1015.40 1015.56 1015.72 1015.82 1015.74 1016.01 1016.23
1011.95 1012.74 1013.35 1013.63 1013.77 1013.96 1014.15 1014.25 1014.37 1014.41 1014.48 1014.54 1014.67 1014.82 1015.15 1015.24 1015.50 1015.56 1015.57 1015.66 1015.79 1015.82 1015.74 1015.76 1015.80 1015.81 1015.81 1015.79 1015.80 1015.70 1015.84 1015.79 1015.92 1015.90 1015.89 1015.85 1015.92 1016.02 1015.91 1015.75 1015.99 1016.29 1016.57
1011.66 1012.89 1013.26 1013.66 1013.91 1014.10 1014.28 1014.37 1014.54 1014.61 1014.73 1014.83 1014.93 1015.11 1015.25 1015.41 1015.56 1015.61 1015.77 1015.83 1015.86 1015.85 1015.89 1015.85 1015.89 1015.89 1015.91 1015.93 1016.05 1015.95 1015.94 1015.82 1015.90 1015.84 1016.06 1015.73 1015.90 1016.09 1016.22 1016.29 1016.42 1016.69 1016.99
1011.38 1012.22 1013.14 1013.74 1013.99 1014.20 1014.36 1014.50 1014.64 1014.75 1014.94 1015.00 1015.09 1015.30 1015.44 1015.42 1015.54 1015.74 1015.87 1015.95 1015.94 1015.89 1015.79 1015.80 1015.86 1015.93 1016.10 1016.18 1016.15 1016.08 1016.00 1015.80 1015.61 1015.64 1015.60 1015.86 1015.76 1015.96 1016.11 1016.48 1016.80 1017.01 1017.32
1010.53 1011.75 1013.32 1013.81 1014.09 1014.32 1014.49 1014.66 1014.78 1014.87 1015.06 1015.22 1015.28 1015.43 1015.46 1015.51 1015.64 1015.84 1015.79 1015.73 1015.77 1015.76 1015.76 1015.82 1015.96 1016.07 1016.20 1016.24 1016.29 1016.24 1016.17 1015.89 1015.63 1015.37 1015.08 1016.00 1015.85 1016.05 1016.26 1016.63 1016.93 1017.20 1017.37
1010.85 1012.23 1013.34 1013.84 1014.13 1014.45 1014.65 1014.77 1014.90 1015.10 1015.20 1015.30 1015.31 1015.38 1015.49 1015.59 1015.62 1015.61 1015.57 1015.56 1015.66 1015.77 1015.86 1015.94 1016.02 1016.09 1016.16 1016.11 1016.22 1016.18 1016.20 1015.97 1015.93 1015.58 1015.49 1015.57 1015.74 1016.23 1016.52 1016.75 1016.55 1016.91 1017.22
1011.31 1012.53 1013.23 1013.87 1014.19 1014.49 1014.74 1014.87 1015.06 1015.19 1015.29 1015.32 1015.32 1015.43 1015.53 1015.50 1015.38 1015.36 1015.41 1015.50 1015.64 1015.84 1015.89 1015.97 1016.02 1016.03 1016.03 1016.04 1016.07 1016.09 1016.16 1016.16 1016.10 1015.60 1015.25 1015.37 1016.04 1016.37 1016.59 1016.77 1016.89 1017.10 1017.24
1010.82 1012.12 1013.19 1013.99 1014.28 1014.54 1014.73 1014.90 1015.13 1015.22 1015.29 1015.28 1015.32 1015.40 1015.36 1015.24 1015.18 1015.08 1015.22 1015.42 1015.56 1015.59 1015.61 1015.67 1015.71 1015.78 1015.85 1015.91 1015.97 1015.98 1015.92 1015.82 1015.45 1015.05 1014.54 1015.08 1015.70 1015.80 1016.16 1016.62 1016.90 1017.03 1017.30
1010.25 1011.72 1013.00 1013.74 1014.19 1014.52 1014.68 1014.87 1015.06 1015.16 1015.15 1015.23 1015.24 1015.12 1015.02 1014.96 1014.87 1014.88 1015.03 1015.17 1015.16 1015.17 1015.29 1015.48 1015.51 1015.42 1015.27 1015.20 1015.30 1015.63 1015.79 1015.64 1015.64 1015.17 1014.74 1014.91 1015.29 1015.63 1015.87 1016.13 1016.39 1016.75 1017.03
1010.27 1011.30 1012.28 1013.20 1013.69 1014.04 1014.43 1014.75 1014.91 1015.00 1014.98 1014.97 1014.86 1014.69 1014.75 1014.61 1014.67 1015.02 1015.12 1015.03 1014.85 1014.99 1015.16 1015.10 1014.92 1014.98 1014.79 1014.78 1015.18 1015.40 1015.55 1015.57 1015.14 1014.66 1014.31 1014.33 1014.52 1014.91 1015.85 1016.27 1016.30 1016.53 1016.66
1010.32 1010.95 1011.55 1012.29 1012.94 1013.40 1013.68 1014.42 1014.71 1014.73 1014.71 1014.59 1014.45 1014.43 1014.65 1014.43 1014.50 1014.48 1014.54 1014.36 1014.64 1014.77 1014.68 1014.49 1014.28 1013.73 1014.06 1014.43 1015.14 1014.92 1015.35 1015.14 1013.87 1013.56 1013.81 1014.17 1014.09 1014.40 1015.03 1015.77 1016.09 1016.23 1016.38
1010.41 1010.77 1011.20 1011.76 1012.23 1012.58 1012.99 1013.89 1013.93 1014.02 1014.01 1013.87 1013.76 1014.05 1014.62 1014.30 1014.04 1013.97 1014.00 1014.25 1014.41 1014.15 1014.31 1014.10 1013.97 1015.45 1015.91 1015.54 1014.68 1014.30 1014.36 1015.03 1014.88 1014.90 1013.26 1014.67 1013.99 1014.15 1014.32 1015.03 1015.60 1016.07 1016.26
1010.14 1010.46 1011.19 1011.55 1011.93 1011.98 1012.52 1012.88 1012.75 1013.03 1013.39 1013.52 1013.65 1014.04 1014.11 1013.90 1014.22 1013.85 1013.78 1013.90 1013.88 1013.81 1013.58 1013.47 1013.82 1014.85 1014.93 1014.84 1013.90 1013.25 1014.48 1014.78 1014.96 1014.17 1013.62 1013.92 1015.33 1015.34 1015.72 1015.37 1015.54 1015.68 1016.01
1009.93 1010.21 1011.10 1011.52 1011.90 1011.83 1012.18 1012.37 1012.41 1012.54 1012.99 1013.64 1013.95 1013.87 1013.85 1014.31 1014.33 1013.55 1013.15 1012.97 1013.16 1012.88 1012.96 1012.81 1013.50 1013.61 1013.89 1013.04 1011.98 1012.97 1014.33 1014.22 1013.85 1014.06 1013.88 1013.35 1013.35 1015.34 1015.04 1016.05 1016.74 1015.86 1016.11
1009.84 1010.30 1010.93 1011.87 1012.25 1012.24 1012.52 1012.31 1012.45 1012.55 1012.67 1013.00 1013.33 1013.56 1013.63 1014.15 1013.94 1012.82 1012.51 1012.28 1012.24 1012.65 1013.00 1013.92 1013.40 1013.39 1013.34 1011.74 1012.85 1012.04 1013.17 1013.01 1012.29 1013.67 1013.19 1013.58 1014.22 1013.84 1014.17 1015.20 1015.79 1016.32 1016.17
1009.80 1010.40 1011.21 1012.07 1012.52 1012.47 1012.86 1012.81 1012.84 1013.13 1013.59 1013.30 1012.93 1012.95 1013.27 1013.35 1012.95 1012.66 1013.16 1013.73 1013.04 1012.62 1012.70 1012.77 1012.80 1012.93 1012.62 1012.02 1012.02 1011.60 1011.67 1011.76 1011.81 1012.24 1012.95 1013.61 1014.00 1013.87 1014.73 1015.10 1015.39 1015.62 1015.87
1009.79 1010.39 1011.09 1011.91 1012.56 1012.82 1012.94 1013.13 1012.82 1013.47 1013.31 1012.86 1012.91 1012.62 1012.60 1012.57 1012.45 1013.04 1013.44 1013.77 1014.08 1012.92 1012.34 1012.29 1012.24 1012.35 1012.53 1012.11 1011.96 1011.84 1011.48 1011.36 1011.58 1011.89 1012.82 1013.40 1013.98 1013.77 1014.10 1013.87 1014.01 1014.30 1015.29
1009.57 1010.28 1010.87 1011.20 1012.09 1012.69 1012.81 1012.81 1012.93 1012.97 1012.71 1012.79 1012.51 1012.40 1012.52 1012.48 1012.33 1012.60 1013.99 1013.33 1013.49 1012.83 1012.61 1012.41 1012.05 1012.36 1012.38 1012.22 1012.07 1011.72 1011.44 1011.34 1011.40 1011.70 1012.76 1013.54 1013.87 1014.01 1014.22 1014.14 1014.19 1014.47 1014.82
1009.39 1010.16 1010.69 1010.92 1011.53 1012.19 1012.41 1012.28 1012.24 1012.45 1012.25 1012.61 1012.06 1012.69 1012.23 1012.83 1012.50 1012.52 1013.90 1013.73 1012.91 1012.89 1012.90 1012.00 1012.39 1012.44 1012.58 1012.11 1011.81 1011.42 1011.41 1011.35 1011.52 1011.89 1012.78 1013.20 1013.83 1013.64 1014.21 1014.34 1014.22 1014.17 1014.40
1009.32 1010.07 1010.52 1010.89 1011.16 1011.69 1012.11 1012.24 1012.13 1012.20 1011.60 1011.66 1011.97 1012.13 1012.28 1012.82 1012.49 1012.31 1012.44 1012.38 1012.03 1012.54 1012.71 1012.61 1012.67 1012.72 1012.31 1012.05 1011.84 1011.70 1011.77 1011.90 1012.02 1012.73 1012.97 1013.08 1013.92 1014.58 1014.61 1014.14 1014.25 1014.17 1014.19
1009.07 1009.97 1010.59 1010.94 1011.31 1011.63 1012.01 1012.06 1011.97 1011.75 1011.56 1011.80 1012.28 1012.24 1011.91 1011.91 1012.39 1011.82 1012.34 1012.20 1011.99 1012.18 1012.28 1012.78 1012.80 1012.40 1012.12 1012.02 1012.16 1012.05 1012.00 1012.26 1012.59 1013.04 1013.34 1012.71 1013.04 1013.89 1014.43 1014.32 1014.47 1014.58 1014.38
1008.56 1009.48 1010.26 1010.78 1011.25 1011.66 1011.78 1011.71 1011.93 1011.74 1011.72 1011.71 1012.02 1012.42 1011.38 1011.45 1011.58 1011.66 1012.22 1012.15 1012.24 1012.17 1012.53 1012.81 1013.20 1012.67 1012.88 1012.18 1012.44 1012.81 1012.67 1012.91 1012.75 1013.19 1013.90 1014.12 1014.55 1014.16 1014.23 1014.04 1014.30 1014.44 1014.43
1007.85 1008.85 1009.73 1010.42 1010.92 1011.36 1011.52 1011.49 1011.55 1011.62 1011.62 1011.52 1011.65 1011.86 1011.35 1011.35 1011.47 1011.48 1011.69 1012.08 1012.38 1012.42 1012.68 1012.90 1012.74 1012.44 1012.78 1012.31 1012.37 1012.84 1012.95 1012.96 1012.90 1013.25 1013.93 1013.88 1014.27 1014.16 1013.94 1013.55 1013.73 1013.71 1013.80
1007.11 1008.14 1009.01 1009.87 1010.46 1011.05 1011.34 1011.53 1011.53 1011.51 1011.44 1011.15 1011.13 1010.80 1011.18 1011.15 1011.23 1011.16 1011.24 1011.49 1011.92 1012.20 1012.15 1012.16 1012.11 1012.24 1012.30 1012.32 1012.19 1012.15 1012.60 1012.91 1013.34 1013.52 1014.18 1014.09 1013.95 1013.92 1013.88 1013.88 1013.89 1013.86 1013.47
1006.30 1007.22 1008.20 1009.24 1009.96 1010.37 1010.91 1011.17 1011.30 1011.42 1011.23 1011.17 1010.88 1011.10 1010.90 1010.95 1010.63 1010.66 1010.77 1011.11 1011.50 1011.75 1011.86 1012.06 1012.05 1012.28 1012.24 1012.19 1012.04 1011.84 1012.16 1012.41 1012.89 1013.62 1013.73 1013.92 1013.85 1013.60 1013.80 1013.94 1013.71 1013.41 1013.49
1005.33 1006.23 1007.26 1008.35 1009.24 1009.97 1010.40 1010.77 1011.05 1011.01 1010.95 1011.04 1010.93 1010.65 1010.47 1010.47 1010.48 1010.57 1010.82 1011.08 1011.42 1011.54 1011.71 1011.93 1012.03 1012.00 1011.90 1011.88 1011.83 1011.84 1011.77 1011.95 1012.22 1012.65 1013.51 1013.78 1013.82 1013.51 1013.55 1013.56 1013.70 1013.69 1013.70
Thickness
5787 5783 5781 5779 5778 5776 5776 5775 5774 5773 5773 5771 5770 5768 5766 5765 5762 5759 5759 5758 5757 5757 5758 5759 5759 5760 5761 5760 5761 5761 5761 5761 5761 5762 5760 5760 5763 5762 5760 5758 5757 5755 5753
5793 5786 5782 5780 5779 5777 5776 5775 5774 5774 5773 5772 5771 5769 5765 5764 5762 5761 5761 5760 5759 5759 5760 5761 5761 5761 5760 5761 5761 5762 5760 5762 5760 5760 5759 5759 5758 5757 5759 5759 5756 5753 5748
5798 5788 5785 5782 5780 5779 5778 5776 5775 5774 5773 5772 5771 5769 5767 5765 5763 5763 5761 5761 5762 5762 5763 5763 5762 5762 5761 5761 5760 5761 5761 5762 5760 5761 5758 5762 5759 5758 5756 5755 5754 5751 5747
5802 5796 5788 5785 5782 5781 5779 5777 5776 5775 5774 5772 5772 5769 5768 5767 5766 5765 5763 5764 5764 5765 5765 5765 5764 5763 5761 5761 5761 5762 5762 5764 5764 5763 5762 5759 5759 5760 5759 5755 5751 5748 5746
5812 5801 5790 5787 5784 5782 5780 5778 5777 5777 5775 5774 5773 5771 5770 5770 5769 5768 5768 5768 5768 5768 5767 5766 5765 5764 5763 5763 5763 5761 5761 5763 5764 5765 5768 5761 5761 5758 5756 5753 5750 5747 5745
5811 5800 5793 5788 5785 5783 5781 5780 5779 5778 5777 5776 5775 5774 5773 5773 5773 5772 5773 5772 5771 5770 5769 5768 5767 5767 5766 5766 5764 5764 5762 5763 5762 5764 5763 5763 5762 5757 5754 5751 5753 5750 5746
5810 5800 5795 5790 5787 5784 5783 5782 5780 5780 5779 5778 5776 5775 5775 5775 5777 5777 5776 5776 5774 5773 5773 5772 5771 5770 5770 5769 5768 5766 5764 5764 5763 5766 5768 5767 5760 5757 5754 5752 5750 5748 5746
5816 5806 5798 5791 5789 5787 5785 5784 5782 5782 5781 5781 5780 5779 5780 5781 5781 5782 5781 5779 5777 5778 5778 5778 5776 5774 5772 5769 5768 5769 5769 5770 5771 5773 5775 5772 5765 5763 5759 5753 5750 5748 5744
5823 5811 5801 5795 5792 5789 5788 5787 5785 5784 5784 5783 5783 5785 5786 5786 5787 5787 5786 5785 5785 5785 5783 5779 5778 5779 5780 5779 5777 5773 5771 5772 5770 5772 5773 5772 5768 5762 5761 5758 5755 5750 5747
5826 5817 5809 5802 5798 5795 5793 5790 5789 5788 5788 5788 5790 5791 5791 5793 5792 5789 5789 5790 5790 5788 5784 5784 5786 5782 5784 5785 5781 5779 5773 5770 5772 5774 5776 5776 5776 5770 5756 5755 5753 5751 5749
5825 5822 5818 5813 5806 5803 5801 5795 5792 5792 5793 5794 5796 5797 5795 5797 5797 5797 5797 5797 5794 5791 5792 5793 5794 5801 5799 5792 5784 5787 5777 5773 5785 5784 5777 5772 5776 5772 5763 5755 5753 5751 5750
5821 5823 5824 5820 5814 5812 5809 5802 5801 5800 5801 5803 5804 5803 5797 5801 5803 5804 5804 5801 5797 5799 5795 5796 5800 5783 5780 5778 5786 5786 5784 5769 5772 5770 5777 5768 5774 5770 5771 5759 5754 5749 5746
5827 5828 5825 5823 5820 5820 5815 5813 5813 5812 5809 5810 5808 5801 5801 5803 5802 5808 5806 5803 5801 5802 5803 5804 5802 5789 5786 5782 5791 5795 5773 5755 5768 5761 5784 5756 5759 5755 5750 5754 5748 5749 5746
5830 5831 5828 5826 5823 5823 5820 5819 5819 5819 5815 5812 5808 5805 5810 5802 5801 5809 5814 5814 5809 5809 5811 5815 5809 5808 5801 5805 5807 5802 5784 5778 5778 5778 5778 5784 5784 5757 5752 5743 5734 5739 5739
5832 5833 5830 5825 5822 5823 5821 5821 5820 5820 5820 5818 5815 5809 5810 5807 5808 5818 5821 5821 5821 5814 5807 5809 5811 5807 5800 5809 5790 5808 5793 5786 5787 5775 5785 5785 5773 5767 5756 5746 5734 5732 5734
5837 5833 5831 5825 5823 5822 5820 5821 5820 5817 5815 5817 5820 5820 5813 5817 5820 5825 5821 5816 5818 5818 5813 5808 5809 5808 5808 5809 5812 5812 5803 5796 5796 5783 5777 5772 5764 5763 5754 5747 5742 5739 5735
5840 5838 5833 5829 5825 5822 5821 5819 5821 5818 5819 5822 5822 5823 5822 5825 5826 5825 5820 5812 5809 5814 5816 5816 5814 5811 5811 5814 5810 5807 5807 5805 5797 5784 5770 5766 5761 5760 5755 5755 5751 5745 5733
5844 5838 5838 5839 5831 5826 5824 5823 5822 5826 5826 5824 5825 5825 5823 5825 5824 5827 5814 5823 5813 5816 5817 5817 5823 5811 5808 5810 5809 5809 5805 5801 5796 5788 5769 5763 5758 5754 5745 5742 5741 5738 5734
5847 5842 5839 5841 5836 5832 5831 5830 5828 5827 5829 5826 5830 5824 5820 5820 5823 5823 5816 5813 5817 5816 5814 5818 5818 5812 5804 5809 5807 5808 5803 5798 5793 5784 5773 5764 5755 5753 5744 5739 5737 5736 5731
5849 5844 5842 5841 5840 5837 5834 5833 5834 5833 5837 5834 5832 5831 5828 5824 5824 5825 5825 5824 5822 5813 5814 5817 5812 5808 5810 5807 5804 5801 5799 5795 5788 5778 5772 5766 5755 5743 5739 5737 5732 5731 5728
5851 5844 5840 5838 5838 5837 5832 5831 5832 5831 5836 5834 5831 5830 5831 5832 5828 5829 5825 5825 5826 5821 5817 5808 5806 5809 5808 5807 5797 5793 5791 5789 5782 5773 5765 5766 5757 5746 5737 5731 5726 5721 5719
5852 5847 5842 5840 5838 5836 5835 5836 5834 5835 5835 5837 5834 5828 5836 5835 5833 5831 5828 5826 5823 5823 5816 5806 5800 5801 5793 5803 5788 5781 5772 5774 5777 5769 5758 5750 5742 5740 5733 5726 5719 5715 5714
5855 5850 5845 5841 5839 5837 5837 5837 5837 5836 5836 5835 5836 5834 5838 5836 5834 5833 5829 5825 5822 5820 5813 5806 5806 5805 5791 5797 5794 5776 5764 5759 5767 5764 5755 5750 5743 5738 5733 5728 5721 5718 5717
5860 5857 5851 5846 5842 5839 5838 5834 5831 5828 5826 5835 5836 5841 5838 5837 5836 5835 5833 5829 5825 5820 5816 5813 5811 5805 5801 5791 5791 5789 5780 5771 5755 5753 5749 5746 5742 5736 5730 5723 5716 5713 5715
5867 5862 5857 5849 5843 5842 5838 5836 5833 5829 5833 5835 5838 5836 5839 5838 5839 5837 5835 5832 5827 5822 5819 5814 5809 5802 5798 5793 5789 5787 5781 5774 5765 5752 5747 5742 5740 5737 5729 5721 5716 5714 5714
5874 5869 5863 5852 5846 5843 5840 5837 5833 5833 5832 5832 5834 5835 5838 5838 5838 5838 5834 5830 5826 5823 5817 5812 5808 5804 5801 5797 5793 5787 5781 5773 5765 5758 5743 5739 5733 5734 5730 5724 5717 5712 5706